[[{"header":{"parameterUnit":"m.s-1","parameterCategory":1,"la1":30.2991,"la2":30.254,"lo1":-89.0895,"lo2":-89.0444,"dy":0.0017,"dx":0.0017,"nx":28,"ny":28,"refTime":"2024-12-06T03:00:00:Z","depth":0,"parameterNumber":2,"parameterNumberName":"U-component_of_WINDS"},"data":[0,0,0,0,0,0,0,0,0,0,0,0,0,0,0,0,0,0,0,0,0,0,0,0,0,0,0,0,0,0,0,0,0,0,0,0,0,0,0,0,0,0,0,0,0,0,0,0,0,0,0,0,0,0,0,0,0,0,-3.7897,-3.7898,0,-3.7936,-3.7936,-3.7936,-3.7802,-3.7798,-3.7794,-3.779,-3.7829,-3.7834,-3.7839,0,0,0,0,0,0,0,0,0,0,0,0,0,-3.7707,-3.7711,-3.7897,-3.7898,-3.7898,-3.7935,-3.7936,-3.7936,-3.7802,-3.7797,-3.7792,-3.7788,-3.7828,-3.7834,-3.7839,0,0,0,0,0,0,0,0,0,0,0,0,0,-3.7772,-3.7713,-3.7897,-3.7836,-3.7831,-3.7935,-3.7936,-3.7937,-3.7803,-3.7797,-3.7791,-3.7786,-3.7826,-3.7833,-3.784,-3.8006,0,0,-3.7862,-3.7865,0,0,0,0,0,0,0,0,-3.7768,-3.7779,-3.7844,-3.784,-3.7835,-3.7857,-3.7883,-3.796,-3.7805,-3.7814,-3.779,-3.7783,-3.7844,-3.7849,-3.787,-3.8008,-3.801,-3.7863,-3.7867,-3.787,-3.7872,0,0,0,0,0,0,0,-3.7764,-3.7777,-3.7912,-3.7845,-3.7839,-3.7806,-3.7808,-3.7897,-3.7862,-3.7812,-3.7803,-3.7809,-3.784,-3.7863,-3.787,-3.801,-3.7863,-3.7869,-3.7874,-3.7876,-3.8286,-3.8292,0,0,0,0,0,0,-3.7768,-3.7774,-3.7911,-3.7913,-3.7786,-3.7814,-3.7817,-3.7856,-3.7861,-3.7856,-3.7814,-3.7803,-3.7854,-3.7861,-3.7871,-3.8065,-3.787,-3.7877,-3.7881,-3.8279,-3.8287,-3.8294,0,0,0,0,0,0,-3.7764,-3.7781,-3.7909,-3.7841,-3.7855,-3.7824,-3.7869,-3.786,-3.7883,-3.7862,-3.7855,-3.7844,-3.7849,-3.786,-3.7973,-3.8064,-3.788,-3.7887,-3.8272,-3.8282,-3.8291,-3.8456,0,0,0,0,0,0,-3.7759,-3.7781,-3.7844,-3.7843,-3.7859,-3.8013,-3.7875,-3.7865,-3.7896,-3.7881,-3.7889,-3.7884,-3.7845,-3.7963,-3.798,-3.8071,-3.7893,-3.8263,-3.8276,-3.8288,-3.8442,-3.847,-3.8494,0,0,0,0,0,-3.7753,-3.7889,-3.7848,-3.7865,-3.7937,-3.8018,-3.8027,-3.7979,-3.7904,-3.7967,-3.7953,-3.7884,-3.8051,-3.7976,-3.7994,-3.8089,-3.8257,-3.8272,-3.8287,-3.843,-3.8465,-3.8493,0,0,0,0,0,0,-3.7902,-3.7888,-3.7842,-3.7982,-3.8002,-3.7995,-3.8073,-3.8017,-3.8059,-3.8044,-3.7982,-3.7985,-3.8109,-3.8109,-3.8026,-3.8249,-3.8141,-3.816,-3.8244,-3.8277,-3.8302,-3.83,-3.7899,0,0,0,0,0,-3.795,-3.8017,-3.8002,-3.8127,-3.8139,-3.8105,-3.8138,-3.81,-3.8118,-3.8126,-3.812,-3.8141,-3.8198,-3.8237,-3.8288,-3.8441,-3.844,-3.8515,-3.854,-3.8562,-3.858,-3.866,-3.8693,-3.8343,-3.8342,-3.8342,0,0,-3.8053,-3.8053,-3.8099,-3.8157,-3.8168,-3.8238,-3.8113,-3.8193,-3.8244,-3.8138,-3.8244,-3.8241,-3.826,-3.8393,-3.8452,-3.8398,-3.8676,-3.8581,-3.8598,-3.8604,-3.8678,-3.8712,-3.8741,-3.8352,-3.8351,-3.8349,0,0,-3.8275,-3.8282,-3.8387,-3.84,-3.8418,-3.8394,-3.842,-3.8421,-3.8415,-3.852,-3.8442,-3.8502,-3.8602,-3.8618,-3.864,-3.8867,-3.8805,-3.8885,-3.9021,-3.91,-3.9128,-3.9152,-3.9233,-3.9263,-3.8902,-3.8903,-3.8903,0,-3.84,-3.8503,-3.8448,-3.8533,-3.8561,-3.8467,-3.8572,-3.8588,-3.8622,-3.8643,-3.8582,-3.8704,-3.871,-3.8846,-3.8901,-3.8922,-3.8949,-3.8885,-3.9128,-3.9152,-3.9173,-3.925,-3.9281,-3.8912,-3.8911,-3.891,-3.8909,0,-3.8655,-3.8728,-3.881,-3.8846,-3.8882,-3.8977,-3.8937,-3.898,-3.8938,-3.892,-3.9029,-3.9032,-3.9083,-3.9112,-3.9071,-3.9242,-3.9208,-3.9138,-3.9029,-3.9218,-3.9289,-3.9318,-3.8926,-3.8923,-3.892,-3.8918,0,0,-3.8974,-3.8977,-3.9008,-3.9023,-3.9035,-3.909,-3.918,-3.9229,-3.9268,-3.9294,-3.9368,-3.9454,-3.9389,-3.9414,-3.9374,-3.9444,-3.9624,-3.9365,-3.9365,-3.9414,-3.9812,-3.9865,-3.99,-3.9582,-3.9587,-3.9591,-3.981,0,-3.9193,-3.9348,-3.9301,-3.9457,-3.9523,-3.9434,-3.9513,-3.9529,-3.9514,-3.9568,-3.9552,-3.9614,-3.9524,-3.9538,-3.9602,-3.9588,-3.9703,-3.9572,-3.9651,-3.9654,-3.965,-3.9937,-3.9994,-4.02,-3.9838,-3.9842,-3.9846,0,-3.9469,-3.9506,-3.9669,-3.967,-3.9696,-3.9768,-3.9808,-3.9861,-3.9876,-3.9861,-3.9888,-3.9834,-3.9922,-3.9812,-3.9932,-3.9844,-3.9873,-3.9871,-3.9878,-3.9884,-3.9763,-3.9952,-4.0265,-4.0296,-3.9889,-3.9886,-3.9883,0,-3.9686,-3.9777,-3.9885,-3.9901,-3.9904,-3.9956,-3.996,-3.997,-4.0002,-4.0037,-4.0057,-4.0102,-4.0128,-4.0164,-4.0123,-4.0046,-4.025,-4.0136,-4.024,-4.0241,-4.0288,-4.0286,-4.0611,-4.0305,-4.0305,-4.0304,-4.0304,0,-3.9936,-4.004,-3.9983,-4.005,-4.0163,-4.0107,-4.022,-4.0214,-4.0223,-4.0287,-4.0212,-4.0274,-4.0216,-4.0272,-4.0241,-4.0346,-4.0357,-4.0347,-4.0338,-4.0355,-4.0356,-4.0374,-4.0359,-4.0312,-4.0311,-4.0309,-4.0308,0,-4.0199,-4.0165,-4.0278,-4.0271,-4.0272,-4.0355,-4.0349,-4.0411,-4.039,-4.0472,-4.0488,-4.0457,-4.0519,-4.0481,-4.0545,-4.0523,-4.066,-4.0631,-4.0655,-4.0648,-4.0754,-4.0745,-4.1102,-4.1146,-4.0812,-4.0816,-4.0818,0,-4.0361,-4.0438,-4.044,-4.0477,-4.0486,-4.0547,-4.0579,-4.0527,-4.0563,-4.0587,-4.0646,-4.0701,-4.0743,-4.0847,-4.083,-4.0877,-4.0849,-4.0971,-4.0856,-4.087,-4.0851,-4.0848,-4.0855,-4.0995,-4.0999,-4.1002,-4.1004,0,-4.0653,-4.0632,-4.0681,-4.0725,-4.0766,-4.0798,-4.0823,-4.0858,-4.0805,-4.085,-4.0913,-4.0945,-4.1009,-4.1066,-4.1106,-4.1109,-4.1049,-4.104,-4.1067,-4.1086,-4.1097,-4.1093,-4.072,-4.1033,-4.103,-4.1028,-4.1026,-4.1025,-4.087,-4.0935,-4.0946,-4.1003,-4.1017,-4.1042,-4.11,-4.1086,-4.1137,-4.1186,-4.1151,-4.1226,-4.1238,-4.1286,-4.1297,-4.1354,-4.1304,-4.1343,-4.1353,-4.1363,-4.1378,-4.1087,-4.1361,-4.136,-4.1359,-4.1358,-4.1358,0,-4.1159,-4.1161,-4.1214,-4.1252,-4.1298,-4.1235,-4.126,-4.1302,-4.1369,-4.1385,-4.1428,-4.15,-4.1553,-4.154,-4.1588,-4.1636,-4.161,-4.1651,-4.1647,-4.1649,-4.1419,-4.1392,-4.1672,-4.1672,-4.1672,-4.1671,-4.1671,-4.1671,-4.1314,-4.142,-4.1401,-4.1512,-4.1513,-4.1585,-4.1605,-4.1628,-4.1641,-4.1724,-4.1769,-4.1759,-4.1764,-4.1811,-4.1858,-4.1852,-4.1874,-4.1926,-4.191,-4.1696,-4.1665,-4.1636,-4.161,-4.1931,-4.1931,-4.2135,-4.2137,-4.2138]},{"header":{"parameterUnit":"m.s-1","parameterCategory":1,"la1":30.2991,"la2":30.254,"lo1":-89.0895,"lo2":-89.0444,"dy":0.0017,"dx":0.0017,"nx":28,"ny":28,"refTime":"2024-12-06T03:00:00:Z","depth":0,"parameterNumber":3,"parameterNumberName":"V-component_of_WINDS"},"data":[0,0,0,0,0,0,0,0,0,0,0,0,0,0,0,0,0,0,0,0,0,0,0,0,0,0,0,0,0,0,0,0,0,0,0,0,0,0,0,0,0,0,0,0,0,0,0,0,0,0,0,0,0,0,0,0,0,0,-4.88,-4.8801,0,-4.8856,-4.8857,-4.8858,-4.8789,-4.8786,-4.8783,-4.8781,-4.8835,-4.8839,-4.8843,0,0,0,0,0,0,0,0,0,0,0,0,0,-4.8627,-4.8631,-4.88,-4.8801,-4.8801,-4.8856,-4.8857,-4.8858,-4.8789,-4.8786,-4.8783,-4.878,-4.8834,-4.8838,-4.8843,0,0,0,0,0,0,0,0,0,0,0,0,0,-4.8695,-4.8632,-4.88,-4.8774,-4.8772,-4.8856,-4.8857,-4.8858,-4.879,-4.8786,-4.8782,-4.8778,-4.8832,-4.8838,-4.8843,-4.8955,0,0,-4.8861,-4.8863,0,0,0,0,0,0,0,0,-4.8691,-4.8701,-4.8777,-4.8776,-4.8774,-4.8812,-4.8816,-4.889,-4.8791,-4.8783,-4.8781,-4.8777,-4.883,-4.8836,-4.8855,-4.8957,-4.896,-4.8861,-4.8865,-4.8867,-4.8869,0,0,0,0,0,0,0,-4.8686,-4.8698,-4.8822,-4.8778,-4.8776,-4.8757,-4.8763,-4.883,-4.8827,-4.8783,-4.8778,-4.8786,-4.8828,-4.8849,-4.8855,-4.896,-4.8861,-4.8866,-4.887,-4.8872,-4.9154,-4.9158,0,0,0,0,0,0,-4.8685,-4.8695,-4.882,-4.8824,-4.8722,-4.8764,-4.877,-4.8803,-4.8826,-4.8826,-4.8789,-4.8783,-4.8841,-4.8849,-4.8857,-4.8987,-4.8867,-4.8873,-4.8876,-4.915,-4.9155,-4.916,0,0,0,0,0,0,-4.8682,-4.8697,-4.8818,-4.8758,-4.8772,-4.8771,-4.8809,-4.8806,-4.8827,-4.8831,-4.8829,-4.8811,-4.8839,-4.8849,-4.8931,-4.8988,-4.8875,-4.888,-4.9146,-4.9152,-4.9158,-4.9249,0,0,0,0,0,0,-4.8677,-4.8697,-4.874,-4.876,-4.8776,-4.8893,-4.8813,-4.881,-4.8837,-4.8829,-4.8851,-4.8851,-4.8836,-4.8922,-4.8936,-4.8994,-4.8885,-4.914,-4.9148,-4.9156,-4.9241,-4.9258,-4.9272,0,0,0,0,0,-4.8671,-4.8763,-4.8743,-4.8758,-4.883,-4.8896,-4.8905,-4.8888,-4.8843,-4.8885,-4.8887,-4.885,-4.898,-4.8931,-4.8946,-4.9006,-4.9137,-4.9146,-4.9155,-4.9234,-4.9254,-4.9272,0,0,0,0,0,0,-4.875,-4.8766,-4.8743,-4.8844,-4.887,-4.8884,-4.8938,-4.891,-4.8948,-4.8938,-4.8914,-4.8919,-4.9006,-4.9014,-4.896,-4.9114,-4.905,-4.9063,-4.9105,-4.9125,-4.914,-4.9136,-4.889,0,0,0,0,0,-4.8779,-4.8833,-4.8843,-4.8931,-4.8945,-4.894,-4.8968,-4.8952,-4.8977,-4.8987,-4.8995,-4.9019,-4.9064,-4.9095,-4.9138,-4.9242,-4.9244,-4.929,-4.9306,-4.9319,-4.9329,-4.9383,-4.9403,-4.919,-4.919,-4.919,0,0,-4.884,-4.8855,-4.889,-4.8948,-4.8965,-4.9019,-4.8949,-4.901,-4.9049,-4.8995,-4.9073,-4.908,-4.9105,-4.9198,-4.9239,-4.9207,-4.9389,-4.933,-4.934,-4.9344,-4.9394,-4.9415,-4.9432,-4.9196,-4.9195,-4.9194,0,0,-4.8978,-4.8996,-4.907,-4.909,-4.9117,-4.9113,-4.9131,-4.915,-4.9152,-4.923,-4.919,-4.9236,-4.9316,-4.9335,-4.9355,-4.9498,-4.9465,-4.9513,-4.9593,-4.9646,-4.9662,-4.9677,-4.9726,-4.9745,-4.9524,-4.9524,-4.9524,0,-4.9049,-4.9131,-4.9112,-4.9175,-4.9201,-4.9155,-4.9229,-4.9248,-4.9288,-4.9306,-4.927,-4.9368,-4.9382,-4.9478,-4.9513,-4.9531,-4.9549,-4.951,-4.9662,-4.9676,-4.969,-4.9736,-4.9755,-4.9529,-4.9529,-4.9528,-4.9528,0,-4.9217,-4.9274,-4.933,-4.9371,-4.9402,-4.9471,-4.946,-4.9494,-4.9475,-4.9474,-4.9552,-4.9567,-4.9611,-4.9632,-4.9615,-4.9725,-4.9704,-4.9666,-4.9601,-4.9716,-4.9759,-4.9777,-4.9537,-4.9535,-4.9534,-4.9532,0,0,-4.9406,-4.9434,-4.9455,-4.9472,-4.9499,-4.9542,-4.9607,-4.9651,-4.9679,-4.9708,-4.9761,-4.9829,-4.9793,-4.9816,-4.9799,-4.9845,-4.9956,-4.9801,-4.9801,-4.9827,-5.0076,-5.0104,-5.0125,-4.9934,-4.9937,-4.994,-5.0073,0,-4.9543,-4.9658,-4.9641,-4.9751,-4.9802,-4.9758,-4.9815,-4.9836,-4.9836,-4.9878,-4.9877,-4.9926,-4.9875,-4.9888,-4.9932,-4.9933,-5.0005,-4.9923,-4.9981,-4.9983,-4.9975,-5.0148,-5.0178,-5.0304,-5.009,-5.0093,-5.0095,0,-4.9718,-4.9754,-4.9869,-4.9886,-4.9906,-4.9958,-4.9995,-5.0037,-5.0059,-5.0055,-5.0081,-5.0055,-5.0118,-5.0054,-5.0139,-5.0084,-5.0106,-5.011,-5.0114,-5.0118,-5.0045,-5.0155,-5.0343,-5.0362,-5.0122,-5.012,-5.0118,0,-4.9843,-4.9919,-4.9997,-5.0013,-5.0036,-5.0072,-5.0083,-5.0102,-5.0128,-5.0161,-5.0177,-5.0217,-5.0238,-5.0268,-5.0253,-5.0207,-5.034,-5.0274,-5.0337,-5.0338,-5.0366,-5.0364,-5.0559,-5.0383,-5.0383,-5.0383,-5.0382,0,-4.9997,-5.0068,-5.0053,-5.0101,-5.0179,-5.0159,-5.0236,-5.0241,-5.0258,-5.0304,-5.0269,-5.0313,-5.0292,-5.0334,-5.0322,-5.0393,-5.0403,-5.0401,-5.0397,-5.0404,-5.0404,-5.0417,-5.0407,-5.0388,-5.0387,-5.0386,-5.0385,0,-5.0149,-5.0142,-5.0224,-5.0238,-5.0243,-5.03,-5.0311,-5.0354,-5.0351,-5.0411,-5.0423,-5.0418,-5.0466,-5.0454,-5.0506,-5.0498,-5.0587,-5.0573,-5.058,-5.0576,-5.0639,-5.0632,-5.0848,-5.0874,-5.0683,-5.0685,-5.0686,0,-5.0247,-5.0301,-5.0321,-5.035,-5.0363,-5.0411,-5.0438,-5.0419,-5.0448,-5.0477,-5.0517,-5.0561,-5.0596,-5.0673,-5.0673,-5.0712,-5.0697,-5.077,-5.0703,-5.0707,-5.0696,-5.0693,-5.0697,-5.0783,-5.0785,-5.0787,-5.0789,0,-5.0421,-5.0415,-5.0456,-5.0495,-5.0528,-5.0558,-5.0585,-5.061,-5.0593,-5.0628,-5.0676,-5.0703,-5.0755,-5.0799,-5.0835,-5.0843,-5.0813,-5.081,-5.0826,-5.0833,-5.0834,-5.0832,-5.0615,-5.0805,-5.0803,-5.0802,-5.0801,-5.08,-5.0548,-5.0593,-5.0614,-5.066,-5.0678,-5.0703,-5.0744,-5.0746,-5.0787,-5.0829,-5.0815,-5.087,-5.0888,-5.0933,-5.0946,-5.0988,-5.096,-5.0984,-5.099,-5.0996,-5.1003,-5.0829,-5.0994,-5.0994,-5.0993,-5.0993,-5.0992,0,-5.0718,-5.0729,-5.0772,-5.081,-5.0846,-5.0815,-5.0842,-5.0874,-5.0923,-5.0944,-5.0978,-5.1033,-5.1075,-5.1078,-5.1117,-5.1149,-5.1136,-5.116,-5.1157,-5.1159,-5.1026,-5.1007,-5.117,-5.117,-5.117,-5.117,-5.117,-5.117,-5.0811,-5.0886,-5.0881,-5.0963,-5.0973,-5.1027,-5.1045,-5.1067,-5.1084,-5.1146,-5.1181,-5.1183,-5.1196,-5.1236,-5.1272,-5.1272,-5.1287,-5.1316,-5.131,-5.1186,-5.1168,-5.1151,-5.1134,-5.132,-5.132,-5.1439,-5.144,-5.1441]}]]